Time,TemperatureF,DewpointF,PressureIn,WindDirection,WindDirectionDegrees,WindSpeedMPH,WindSpeedGustMPH,Humidity,HourlyPrecipIn,Conditions,Clouds,dailyrainin,SoftwareType,DateUTC
2013-08-26 00:03:00,83.0,72.0,-100.00,South,175,6.0,14.0,72,-99.99,,,-99.99,,2013-08-26 05:03:00,
2013-08-26 00:10:00,82.0,73.0,-100.00,South,175,7.0,15.0,76,-99.99,,,-99.99,,2013-08-26 05:10:00,
2013-08-26 00:44:00,82.0,73.0,-100.00,South,175,7.0,15.0,76,-99.99,,,-99.99,,2013-08-26 05:44:00,
2013-08-26 00:52:00,82.0,73.0,-100.00,South,175,7.0,15.0,76,-99.99,,,-99.99,,2013-08-26 05:52:00,
2013-08-26 01:02:00,82.0,73.0,-100.00,South,175,7.0,15.0,76,-99.99,,,-99.99,,2013-08-26 06:02:00,
2013-08-26 01:42:00,80.0,74.0,-100.00,South,180,4.0,15.0,80,-99.99,,,-99.99,,2013-08-26 06:42:00,
2013-08-26 01:52:00,80.0,74.0,-100.00,South,180,4.0,15.0,80,-99.99,,,-99.99,,2013-08-26 06:52:00,
2013-08-26 02:02:00,80.0,74.0,-100.00,South,180,4.0,15.0,80,-99.99,,,-99.99,,2013-08-26 07:02:00,
2013-08-26 02:11:00,80.0,74.0,-100.00,WSW,240,2.0,7.0,83,-99.99,,,-99.99,,2013-08-26 07:11:00,
2013-08-26 02:42:00,80.0,74.0,-100.00,WSW,240,2.0,7.0,83,-99.99,,,-99.99,,2013-08-26 07:42:00,
2013-08-26 02:52:00,80.0,74.0,-100.00,WSW,240,2.0,7.0,83,-99.99,,,-99.99,,2013-08-26 07:52:00,
2013-08-26 03:02:00,80.0,74.0,-100.00,WSW,240,2.0,7.0,83,-99.99,,,-99.99,,2013-08-26 08:02:00,
2013-08-26 03:42:00,77.0,72.0,-100.00,NNW,345,9.0,29.0,84,-99.99,,,-99.99,,2013-08-26 08:42:00,
2013-08-26 03:52:00,77.0,72.0,-100.00,NNW,345,9.0,29.0,84,-99.99,,,-99.99,,2013-08-26 08:52:00,
2013-08-26 04:02:00,77.0,72.0,-100.00,NNW,345,9.0,29.0,84,-99.99,,,-99.99,,2013-08-26 09:02:00,
2013-08-26 04:10:00,71.0,71.0,-100.00,SSE,150,6.0,11.0,98,-99.99,,,-99.99,,2013-08-26 09:10:00,
2013-08-26 04:43:00,71.0,71.0,-100.00,SSE,150,6.0,11.0,98,-99.99,,,-99.99,,2013-08-26 09:43:00,
2013-08-26 04:54:00,71.0,71.0,-100.00,SSE,150,6.0,11.0,98,-99.99,,,-99.99,,2013-08-26 09:54:00,
2013-08-26 05:03:00,71.0,71.0,-100.00,SSE,150,6.0,11.0,98,-99.99,,,-99.99,,2013-08-26 10:03:00,
2013-08-26 05:42:00,71.0,71.0,-100.00,South,180,4.0,7.0,99,-99.99,,,-99.99,,2013-08-26 10:42:00,
2013-08-26 05:52:00,71.0,71.0,-100.00,South,180,4.0,7.0,99,-99.99,,,-99.99,,2013-08-26 10:52:00,
2013-08-26 06:02:00,71.0,71.0,-100.00,South,180,4.0,7.0,99,-99.99,,,-99.99,,2013-08-26 11:02:00,
2013-08-26 06:10:00,71.0,71.0,-100.00,East,100,1.0,2.0,99,-99.99,,,-99.99,,2013-08-26 11:10:00,
2013-08-26 06:42:00,71.0,71.0,-100.00,East,100,1.0,2.0,99,-99.99,,,-99.99,,2013-08-26 11:42:00,
2013-08-26 06:52:00,71.0,71.0,-100.00,East,100,1.0,2.0,99,-99.99,,,-99.99,,2013-08-26 11:52:00,
2013-08-26 07:01:00,71.0,71.0,-100.00,East,100,1.0,2.0,99,-99.99,,,-99.99,,2013-08-26 12:01:00,
2013-08-26 07:42:00,71.0,71.0,-100.00,SW,225,1.0,5.0,99,-99.99,,,-99.99,,2013-08-26 12:42:00,
2013-08-26 07:52:00,71.0,71.0,-100.00,SW,225,1.0,5.0,99,-99.99,,,-99.99,,2013-08-26 12:52:00,
2013-08-26 08:02:00,71.0,71.0,-100.00,SW,225,1.0,5.0,99,-99.99,,,-99.99,,2013-08-26 13:02:00,
2013-08-26 08:10:00,72.0,71.0,-100.00,SW,215,1.0,3.0,99,-99.99,,,-99.99,,2013-08-26 13:10:00,
2013-08-26 08:42:00,72.0,71.0,-100.00,SW,215,1.0,3.0,99,-99.99,,,-99.99,,2013-08-26 13:42:00,
2013-08-26 08:52:00,72.0,71.0,-100.00,SW,215,1.0,3.0,99,-99.99,,,-99.99,,2013-08-26 13:52:00,
2013-08-26 09:02:00,72.0,71.0,-100.00,SW,215,1.0,3.0,99,-99.99,,,-99.99,,2013-08-26 14:02:00,
2013-08-26 09:10:00,72.0,72.0,-100.00,South,180,2.0,5.0,99,-99.99,,,-99.99,,2013-08-26 14:10:00,
2013-08-26 09:42:00,72.0,72.0,-100.00,South,180,2.0,5.0,99,-99.99,,,-99.99,,2013-08-26 14:42:00,
2013-08-26 09:52:00,72.0,72.0,-100.00,South,180,2.0,5.0,99,-99.99,,,-99.99,,2013-08-26 14:52:00,
2013-08-26 10:01:00,72.0,72.0,-100.00,South,180,2.0,5.0,99,-99.99,,,-99.99,,2013-08-26 15:01:00,
2013-08-26 10:10:00,77.0,76.0,-100.00,South,170,4.0,8.0,97,-99.99,,,-99.99,,2013-08-26 15:10:00,
2013-08-26 10:47:00,77.0,76.0,-100.00,South,170,4.0,8.0,97,-99.99,,,-99.99,,2013-08-26 15:47:00,
2013-08-26 10:59:00,77.0,76.0,-100.00,South,170,4.0,8.0,97,-99.99,,,-99.99,,2013-08-26 15:59:00,
2013-08-26 11:10:00,79.0,75.0,-100.00,South,175,6.0,10.0,89,-99.99,,,-99.99,,2013-08-26 16:10:00,
2013-08-26 11:48:00,79.0,75.0,-100.00,South,175,6.0,10.0,89,-99.99,,,-99.99,,2013-08-26 16:48:00,
2013-08-26 11:59:00,79.0,75.0,-100.00,South,175,6.0,10.0,89,-99.99,,,-99.99,,2013-08-26 16:59:00,
2013-08-26 12:06:00,79.0,75.0,-100.00,South,175,6.0,10.0,89,-99.99,,,-99.99,,2013-08-26 17:06:00,
2013-08-26 12:10:00,81.0,75.0,-100.00,South,170,1.0,6.0,84,-99.99,,,-99.99,,2013-08-26 17:10:00,
2013-08-26 12:43:00,81.0,75.0,-100.00,South,170,1.0,6.0,84,-99.99,,,-99.99,,2013-08-26 17:43:00,
2013-08-26 12:53:00,81.0,75.0,-100.00,South,170,1.0,6.0,84,-99.99,,,-99.99,,2013-08-26 17:53:00,
2013-08-26 13:01:00,81.0,75.0,-100.00,South,170,1.0,6.0,84,-99.99,,,-99.99,,2013-08-26 18:01:00,
2013-08-26 13:42:00,82.0,74.0,-100.00,SSE,155,3.0,7.0,77,-99.99,,,-99.99,,2013-08-26 18:42:00,
2013-08-26 13:52:00,82.0,74.0,-100.00,SSE,155,3.0,7.0,77,-99.99,,,-99.99,,2013-08-26 18:52:00,
2013-08-26 14:01:00,82.0,74.0,-100.00,SSE,155,3.0,7.0,77,-99.99,,,-99.99,,2013-08-26 19:01:00,
2013-08-26 14:42:00,87.0,74.0,-100.00,NW,310,2.0,5.0,64,-99.99,,,-99.99,,2013-08-26 19:42:00,
2013-08-26 14:52:00,87.0,74.0,-100.00,NW,310,2.0,5.0,64,-99.99,,,-99.99,,2013-08-26 19:52:00,
2013-08-26 15:02:00,87.0,74.0,-100.00,NW,310,2.0,5.0,64,-99.99,,,-99.99,,2013-08-26 20:02:00,
2013-08-26 15:43:00,88.0,73.0,-100.00,SW,220,1.0,4.0,61,-99.99,,,-99.99,,2013-08-26 20:43:00,
2013-08-26 15:52:00,88.0,73.0,-100.00,SW,220,1.0,4.0,61,-99.99,,,-99.99,,2013-08-26 20:52:00,
2013-08-26 16:01:00,88.0,73.0,-100.00,SW,220,1.0,4.0,61,-99.99,,,-99.99,,2013-08-26 21:01:00,
2013-08-26 16:07:00,86.0,76.0,-100.00,East,100,1.0,4.0,71,-99.99,,,-99.99,,2013-08-26 21:07:00,
2013-08-26 16:44:00,86.0,76.0,-100.00,East,100,1.0,4.0,71,-99.99,,,-99.99,,2013-08-26 21:44:00,
2013-08-26 16:55:00,86.0,76.0,-100.00,East,100,1.0,4.0,71,-99.99,,,-99.99,,2013-08-26 21:55:00,
2013-08-26 17:42:00,88.0,74.0,-100.00,SE,125,3.0,7.0,62,-99.99,,,-99.99,,2013-08-26 22:42:00,
2013-08-26 17:53:00,88.0,74.0,-100.00,SE,125,3.0,7.0,62,-99.99,,,-99.99,,2013-08-26 22:53:00,
2013-08-26 18:03:00,88.0,74.0,-100.00,SE,125,3.0,7.0,62,-99.99,,,-99.99,,2013-08-26 23:03:00,
2013-08-26 18:42:00,84.0,76.0,-100.00,East,85,1.0,3.0,77,-99.99,,,-99.99,,2013-08-26 23:42:00,
2013-08-26 18:52:00,84.0,76.0,-100.00,East,85,1.0,3.0,77,-99.99,,,-99.99,,2013-08-26 23:52:00,
2013-08-26 19:01:00,84.0,76.0,-100.00,East,85,1.0,3.0,77,-99.99,,,-99.99,,2013-08-27 00:01:00,
2013-08-26 19:42:00,81.0,77.0,-100.00,NNE,15,2.0,4.0,89,-99.99,,,-99.99,,2013-08-27 00:42:00,
2013-08-26 19:52:00,81.0,77.0,-100.00,NNE,15,2.0,4.0,89,-99.99,,,-99.99,,2013-08-27 00:52:00,
2013-08-26 20:02:00,81.0,77.0,-100.00,NNE,15,2.0,4.0,89,-99.99,,,-99.99,,2013-08-27 01:02:00,
2013-08-26 20:42:00,79.0,77.0,-100.00,ESE,115,3.0,11.0,95,-99.99,,,-99.99,,2013-08-27 01:42:00,
2013-08-26 20:52:00,79.0,77.0,-100.00,ESE,115,3.0,11.0,95,-99.99,,,-99.99,,2013-08-27 01:52:00,
2013-08-26 21:01:00,71.0,70.0,-100.00,WNW,290,16.0,39.0,98,-99.99,,,-99.99,,2013-08-27 02:01:00,
2013-08-26 21:02:00,79.0,77.0,-100.00,ESE,115,3.0,11.0,95,-99.99,,,-99.99,,2013-08-27 02:02:00,
2013-08-26 21:43:00,71.0,70.0,-100.00,WNW,290,16.0,39.0,98,-99.99,,,-99.99,,2013-08-27 02:43:00,
2013-08-26 21:52:00,71.0,70.0,-100.00,WNW,290,16.0,39.0,98,-99.99,,,-99.99,,2013-08-27 02:52:00,
2013-08-26 22:08:00,70.0,70.0,-100.00,SSE,150,2.0,5.0,99,-99.99,,,-99.99,,2013-08-27 03:08:00,
2013-08-26 22:45:00,70.0,70.0,-100.00,SSE,150,2.0,5.0,99,-99.99,,,-99.99,,2013-08-27 03:45:00,
2013-08-26 22:58:00,70.0,70.0,-100.00,SSE,150,2.0,5.0,99,-99.99,,,-99.99,,2013-08-27 03:58:00,
2013-08-26 23:10:00,70.0,70.0,-100.00,North,5,0.0,4.0,99,-99.99,,,-99.99,,2013-08-27 04:10:00,
2013-08-26 23:47:00,70.0,70.0,-100.00,North,5,0.0,4.0,99,-99.99,,,-99.99,,2013-08-27 04:47:00,
2013-08-26 23:54:00,70.0,70.0,-100.00,North,5,0.0,4.0,99,-99.99,,,-99.99,,2013-08-27 04:54:00,